Regional Weather Roundup
Issued by NWS Wakefield, VA

Home | Current Version | Previous Version | Graphics & Text | Print | Product List | Glossary On
Versions: 1 2 3 4 5 6 7 8 9 10 11 12 13 14 15 16 17 18 19 20 21 22 23 24 25 26 27
000
ASUS41 KAKQ 241010
RWRAKQ

REGIONAL WEATHER ROUNDUP
NATIONAL WEATHER SERVICE WAKEFIELD VA
600 AM EDT FRI OCT 24 2014

Note: "fair" indicates few or no clouds below 12,000 feet with no
significant weather and/or obstructions to visibility. * = Denotes
station may not report precipitation (e.g., rain,snow,etc.),
thunder or fog.

VAZ042-051-052>054-056-241100-
NORTHERN VIRGINIA

CITY           SKY/WX    TMP DP  RH WIND       PRES   REMARKS
WASH NATIONAL  CLEAR     56  42  59 W8        29.96R
DULLES         CLEAR     51  42  71 NW10      29.97R
FORT BELVOIR   CLEAR     54  42  65 NW13      29.96R
QUANTICO       CLEAR     54  42  64 NW9       29.98R
FREDERICKSBRG* CLEAR     55  44  66 N9        29.96S
STAFFORD*      CLEAR     47  41  80 NW5       30.01R
WARRENTON      CLEAR     53  47  81 NW8       29.97S
CULPEPER*      CLEAR     48  43  81 NW5       29.99R
MANASSAS*      CLEAR     54  45  71 NW14      29.97S
LEESBURG*      CLEAR     52  45  76 N5        29.98R
WINCHESTER     CLEAR     50  37  62 NW7       30.00R
FRONT ROYAL*   SUNNY     50  41  71 CALM      30.00R
LURAY*         SUNNY     54  43  66 N7        30.01R
$$

VAZ048-049-060>072-079>083-241100-
CENTRAL AND SOUTH CENTRAL VIRGINIA...AND NORTH CENTRAL NORTH CAROLINA

CITY           SKY/WX    TMP DP  RH WIND       PRES   REMARKS
RICHMOND       CLEAR     50  42  74 NW5       29.98R
CHESTERFIELD*    N/A    N/A N/A N/A MISG        N/A
PETERSBURG*    PTCLDY    47  41  80 W7        30.00R
HANOVER        CLEAR     46  42  86 CALM      30.00R
TAPPAHANNOCK*  CLEAR     50  40  68 CALM      29.97R
CHARLOTTSVILLE CLEAR     50  40  68 W9        29.98S
ORANGE*        CLEAR     45  41  87 CALM      29.99R
LOUISA*        CLEAR     41  39  93 CALM      29.97R
FARMVILLE*     PTCLDY    46  39  76 CALM      29.99R
CREWE*         PTSUNNY   48  40  73 W3        30.00R
FORT PICKETT*  PTSUNNY   46  41  82 W8        30.00R
LUNENBURG*     PTSUNNY   46  42  85 W3        30.00R
SOUTH HILL*    MOCLDY    48  43  81 CALM      30.06R
LAWRENCEVILLE* PTSUNNY   44  42  93 CALM      29.99S
ROANOKE RAPIDS PTSUNNY   46  43  87 CALM      30.00S
RALEIGH        MOCLDY    44  40  85 CALM      30.02S
$$

VAZ088>098-241100-
SOUTHEAST VIRGINIA

CITY           SKY/WX    TMP DP  RH WIND       PRES   REMARKS
NORFOLK        CLEAR     57  42  57 VRB7      29.94R
VIRGINIA BEACH PTCLDY    57  44  62 NW10      29.93R
NORFOLK NAVAL  PTCLDY    58  44  60 NW13      29.96R
WEST POINT*    CLEAR     53  44  71 NW6       29.97S
NEWPORT NEWS   CLEAR     54  43  66 NW7       29.95R
LANGLEY AFB    CLEAR     53  44  71 W9        29.95R
FORT EUSTIS    CLEAR     53  46  77 NW7       29.94R
WILLIAMSBURG*  CLEAR     52  46  82 NW5       29.96S
HR EXEC AP*    SUNNY     46  43  87 W5        29.98R
FRANKLIN*      PTCLDY    46  43  87 NW6       29.98R
WAKEFIELD      CLEAR     48  42  80 W5        29.98R
$$

VAZ020-022-025-037-045-241100-
WEST CENTRAL AND SOUTHWEST VIRGINIA

CITY           SKY/WX    TMP DP  RH WIND       PRES   REMARKS
STAUNTON*      CLEAR     37  34  89 CALM      30.04R
HOT SPRINGS VA PTCLDY    39  38  94 NW13      30.03R
LYNCHBURG      MOCLDY    41  39  93 CALM      30.03S
DANVILLE       PTCLDY    45  39  79 W6        30.04R
SOUTH BOSTON*  NOT AVBL
MARTINSVILLE   CLEAR     38  38 100 CALM      30.08R
ROANOKE        MOCLDY    46  39  76 NW7       30.09R
BLACKSBURG     MOCLDY    39  39 100 CALM      30.10R
DUBLIN*        MOCLDY    43  41  93 SW3       30.10S
MARION*        MOCLDY    37  36  95 CALM      30.13S FOG
HILLSVILLE*    MOCLDY    41  38  89 NW6       30.08S
RICHLANDS*     CLOUDY    43  40  89 CALM      30.11S
WISE*          CLOUDY    41  41 100 CALM      30.12R
ABINGDON*      MOCLDY    39  38  98 CALM      30.11R
$$

MDZ021>025-VAZ099-100-241100-
SOUTHERN MARYLAND AND THE DELMARVA PENINSULA

CITY           SKY/WX    TMP DP  RH WIND       PRES   REMARKS
PATUXENT RIVER PTCLDY    54  42  64 NW14      29.92R
BAY BRIDGE APT   N/A     54  43  66 NW10      29.91R
LEONARDTOWN    CLEAR     50  41  71 W6        29.95R
DOVER          CLOUDY    53  46  75 W6        29.85R
GEORGETOWN     CLOUDY    55  44  66 VRB6      29.88R
EASTON         CLEAR     56  46  69 NW7       29.94R
CAMBRIDGE      PTCLDY    57  43  58 NW12G18   29.90R
SALISBURY      PTCLDY    57  43  59 W7        29.88R
OCEAN CITY     CLOUDY    54  46  74 NW6       29.87R
WALLOPS ISLAND CLEAR     54  44  69 N9        29.88F
ACCOMACK*      CLEAR     55  45  67 NW10      29.91R
$$

NCZ012>017-030>032-241100-
EASTERN NORTH CAROLINA

CITY           SKY/WX    TMP DP  RH WIND       PRES   REMARKS
ELIZABETH CITY PTCLDY    50  43  77 W9        29.96R
AHOSKIE*       MOCLDY    46  42  88 CALM      30.00R
EDENTON*       PTCLDY    51  45  79 NW7       29.98R
CURRITUCK*     PTCLDY    49  43  79 W6        29.97R
KILL DEVIL HLS PTCLDY    55  46  72 NW7       29.92S
MANTEO         PTCLDY    56  47  71 NW8G16    29.95R
CAPE HATTERAS  PTCLDY    57  49  74 NW12G22   29.95R
TARBORO*       SUNNY     46  43  90 CALM      30.01S
GOLDSBORO      CLEAR     48  47  97 NW2       29.99S
WASHINGTON     CLEAR     47  44  89 CALM      29.99S
GREENVILLE     CLEAR     48  45  87 CALM      30.01S
NEW BERN       CLEAR     48  44  86 CALM      30.00R
WILMINGTON     MOCLDY    49  45  86 NW5       30.00R
$$

VAZ048-241100-
ELSEWHERE

CITY           SKY/WX    TMP DP  RH WIND       PRES   REMARKS
HARRISBURG PA  CLOUDY    55  43  63 NW12      29.91R
BALTIMORE      PTCLDY    53  42  66 W3        29.92R
ANNAPOLIS      CLEAR     55  43  63 W5        29.91R
ANDREWS AFB    CLEAR     53  43  67 W13       29.94R
WILMINGTON DE  CLOUDY    57  46  66 NW13G21   29.87R
PHILADELPHIA   MOCLDY    56  44  64 N12       29.85S
WILDWOOD NJ*   PTCLDY    55  45  67 NW8       29.86R
ATLANTIC CITY  PTCLDY    46  44  93 NW3       29.83R
HENDERSON NC   PTCLDY    48  39  71 NW6       30.02R
GREENSBORO     PTCLDY    44  40  85 N3        30.02S
ROCKY MOUNT    CLEAR     49  42  77 NW5       30.01R
FAYETTEVILLE   MOCLDY    50  42  74 N5        30.02R
CHARLOTTE      MOCLDY    43  40  89 CALM      30.05R
$$

VAZ100-241100-
MARINE

STATION/POSITION TIME  TEMP    WIND        PRES    WAVE   SWELL
                       AIR SEA DIR/SP/G            HT/PER HT/PER
                 (UTC) (F)     (DEG/KT/KT) (MB)    (FT/S) (FT/S)
44066 TX TWR #4  1000   57 66  330/ 21/ 27 1006.3R   9/ 7   2/11
CAPE MAY NJ      1000   57 62  320/  8/ 14 1010.2S
LEWES DE         1000   55 58  280/ 10/ 12 1011.1R
15NM E FENWICK I 1000   59 64  300/ 19/ 23 1010.1R   5/ 7   2/ 9
OCEAN-CITY-INLET 1000   55 59  320/  9/ 12 1010.9R
WACHAPREAGUE VA  1000   57 59  280/  4/  6 1012.6R
THOMAS POINT MD  1000   55 62  300/ 12/ 15 1014.1R
GOOSES REEF MD   1000   57     310/ 16/ 19 1013.4R
COVE POINT MD    1000   56     310/ 19/ 28 1012.7R
SOLOMONS ISLAND  1000      64                N/A
BISHOPS HEAD MD  1000   56 56  320/ 15/ 17 1012.0F
PINEY POINT MD   1000          330/ 24/ 26   N/A
POTOMAC MD       1000   58     330/ 17/ 21 1012.7R
CAMBRIDGE MD     1000   58 60  300/ 12/ 16 1012.3R
LEWISETTA VA     1000   57 59  320/ 13/ 18 1013.4R
RAPPAHANNOCK LGT 1000          300/ 20/ 22 1013.5R
STINGRAY PT      1000   58     310/ 16/ 19 1014.1R
YORK RVR RNG VA  1000   56     330/ 17/ 23 1013.5R
YORKTOWN VA      1000   56 64  300/ 12/ 14 1013.7R
JAMESTOWN VA     1000   55     330/ 12/ 14   N/A
DOMINION TERM VA 1000   56     310/ 15/ 18 1013.9R
KIPTOPEKE VA     1000      64  320/ 21/ 23   N/A
CHES BAY BRIDGE  1000   58 65  300/ 18/ 23 1013.2R
CHESAPEAKE LGHT  0900   60     330/ 26/ 28 1013.1R
WILLOUBY STN VA  1000   57     320/ 15/ 18 1012.7R
S CRANEY ISL VA  1000          270/  7/ 11 1013.7S
CAPE HENRY BUOY  1000      68                N/A     5/ 5
1ST LANDING BUOY 1000   60     330/ 21/ 25 1013.1R
CAPE CHARLES BUO 1000      66                N/A     4/ 7   2/ 7
64NM E OF VA BCH 1000   62 66  300/ 17/ 21 1011.4R   6/ 7   2/15
DUCK PIER NC     1000   55 66  300/ 13/ 17 1013.0R
44100 DUCK FRF   1000      68                N/A     5/ 8
44056 DUCK FRF   1000                        N/A     4/ 8
OREGON INLET NC  1000   57 65  300/  9/ 14 1013.5R
HATTERAS NC      1000   60 64  320/ 18/ 21 1014.5R
DIAMOND SHLS NC  1000   62     320/ 17/ 23 1013.6R   5/ 4   2/11
CAPE LOOKOUT NC  0900   58     340/ 12/ 14 1014.6R
$$



USA.gov is the U.S. government's official web portal to all federal, state and local government web resources and services.